Weather observations for the past three days for
Dodge City, Dodge City Regional Airport
Imperial (Metric)
Date Time (cdt) Wind (mph) Vis. (mi.) Weather Sky Cond. Temperature (ºF) Relative Humidity Wind Chill (°F) Heat Index (°F) Pressure Precipitation (in)
Air Dwpt 6 hour altimeter (in) sea level (mb) 1 hr 3 hr 6 hr
Max. Min.
23 00:52 N 3 4.00 Fog/Mist CLR 62.1 61 66 62.1 96% 30.1 1016.7
22 23:52 Calm 6.00 Fog/Mist CLR 63 62.1 97% 30.09 1016.3
22 22:52 SW 5 8.00 Fair CLR 63 62.1 97% 30.09 1016.2
22 21:52 S 5 8.00 Fair CLR 64 62.1 93% 30.09 1016.6
22 20:52 S 6 8.00 Mostly Cloudy BKN110 66 63 90% 30.09 1016.7
22 19:52 SE 6 9.00 A Few Clouds FEW110 66 63 90% 30.09 1017.0
22 18:52 NE 16 5.00 Light Rain Fog/Mist FEW070 OVC110 64.9 63 86 64 93% 30.09 1017.1 0.46 0.53
22 17:52 W 21 G 44 0.50 Thunderstorm Heavy Rain Fog and Breezy SCT020 SCT038 OVC055 64 61 90% 30.07 1016.4 0.07
22 16:52 S 14 G 25 9.00 A Few Clouds FEW055 84.9 62.1 46% 85 30.03 1013.8
22 15:52 S 9 9.00 Partly Cloudy SCT060 82.9 61 48% 83 30.05 1014.8
22 14:52 S 6 9.00 Overcast BKN055 OVC065 82.9 60.1 46% 83 30.08 1015.6
22 13:52 SW 8 9.00 Fair CLR 82 61 49% 83 30.1 1016.3
22 12:52 S 6 10.00 Partly Cloudy SCT047 82 62.1 82 63 51% 83 30.11 1016.7
22 11:52 SE 5 10.00 A Few Clouds FEW040 81 62.1 53% 82 30.13 1017.3
22 10:52 S 8 10.00 Fair CLR 78.1 63 60% 80 30.14 1017.9
22 09:52 SW 9 9.00 A Few Clouds FEW065 73.9 63 69% 30.15 1018.3
22 08:52 SW 7 8.00 Mostly Cloudy BKN065 70 63 79% 30.15 1018.2
22 07:52 SW 5 7.00 Fair CLR 66 63 90% 30.13 1017.7
22 06:52 SW 3 8.00 Fair CLR 64 60.1 68 62.1 87% 30.12 1017.4
22 05:52 SW 6 9.00 Fair CLR 62.1 59 90% 30.12 1017.2
22 04:52 SW 5 9.00 Fair CLR 64 60.1 87% 30.13 1017.5
22 03:52 S 7 8.00 Fair CLR 63 60.1 90% 30.13 1017.6
22 02:52 S 6 8.00 A Few Clouds FEW095 64 61 90% 30.14 1018.0
22 01:52 S 7 9.00 Fair CLR 66 61 84% 30.16 1018.5
21 23:52 S 7 9.00 Fair CLR 68 61 78% 30.17 1019.0
21 22:52 SE 6 10.00 Fair CLR 68 62.1 81% 30.16 1018.8
21 21:52 SE 5 10.00 Fair CLR 71.1 62.1 73% 30.15 1018.4
21 20:52 SE 5 10.00 Fair CLR 73.9 60.1 62% 30.13 1017.6
21 19:52 E 7 10.00 Fair CLR 80.1 59 49% 81 30.11 1017.0
21 18:52 E 8 10.00 A Few Clouds FEW070 80.1 57.9 84 78.1 47% 81 30.11 1017.0
21 17:52 E 5 10.00 A Few Clouds FEW070 81 55.9 42% 81 30.12 1017.2
21 16:52 E 7 10.00 A Few Clouds FEW060 80.1 57 45% 80 30.14 1017.8
21 15:52 NE 10 G 16 10.00 Partly Cloudy SCT048 82.9 60.1 46% 83 30.14 1018.0
21 14:52 NE 8 G 20 10.00 A Few Clouds FEW042 82 60.1 47% 82 30.16 1018.5
21 13:52 NE 12 10.00 Mostly Cloudy BKN042 BKN055 80.1 61 52% 81 30.18 1019.3
21 12:52 NE 12 10.00 Mostly Cloudy BKN036 80.1 61 80.1 63 52% 81 30.2 1019.7
21 11:52 NE 6 10.00 Mostly Cloudy BKN029 75.9 62.1 62% 78 30.2 1020.2
21 10:52 NE 9 10.00 Fair CLR 73.9 62.1 67% 30.21 1020.3
21 09:52 NE 12 8.00 A Few Clouds FEW014 71.1 63 76% 30.21 1020.4
21 08:52 NE 9 5.00 Fog/Mist CLR 68 64 87% 30.2 1020.1
21 07:52 NE 10 2.50 Fog/Mist CLR 64.9 63 93% 30.18 1019.4
21 06:52 NE 6 1.75 Fog/Mist CLR 63 62.1 66.9 62.1 97% 30.17 1019.0
21 05:52 N 7 3.00 Fog/Mist CLR 62.1 61 96% 30.16 1018.7
21 04:52 NW 5 3.00 Fog/Mist CLR 63 62.1 97% 30.15 1018.2
21 03:52 N 3 3.00 Fog/Mist CLR 62.1 61 96% 30.16 1018.6
21 02:52 N 3 5.00 Fog/Mist CLR 63 61 93% 30.16 1018.5
21 01:52 NE 5 7.00 Fair CLR 64.9 63 93% 30.17 1018.9
21 00:52 E 7 8.00 Fair CLR 66.9 64 82.9 66.9 91% 30.17 1018.7
20 23:52 NE 6 9.00 Fair CLR 68 64 87% 30.17 1018.6
20 22:52 NE 8 10.00 Fair CLR 69.1 64 84% 30.17 1018.7
20 21:52 NE 7 10.00 Fair CLR 71.1 64 79% 30.14 1017.9
20 20:52 NE 9 10.00 Fair CLR 75 63 66% 77 30.11 1016.8
20 18:52 N 13 10.00 Fair CLR 82.9 61 86 81 48% 83 30.09 1015.9
20 17:52 NE 13 G 22 10.00 Partly Cloudy SCT047 SCT055 84 62.1 48% 85 30.09 1016.0
20 16:52 NE 17 G 22 10.00 Partly Cloudy SCT048 84 63 49% 85 30.1 1016.2
20 15:52 N 16 G 22 10.00 A Few Clouds FEW038 84 64.9 53% 86 30.11 1016.4
20 14:52 N 17 G 24 10.00 A Few Clouds FEW032 82.9 68 61% 86 30.11 1016.4
20 13:52 N 17 G 24 10.00 Mostly Cloudy BKN035 81 68 65% 84 30.11 1016.5
20 12:52 N 12 10.00 A Few Clouds FEW029 81 66.9 82 66.9 62% 83 30.11 1016.3
20 11:52 N 12 10.00 Fair CLR 81 64.9 58% 83 30.1 1016.1
20 10:52 N 8 10.00 Fair CLR 78.1 68 71% 80 30.1 1016.4
20 09:52 NW 8 9.00 Fair CLR 72 66 82% 30.1 1016.6
20 08:52 W 3 8.00 Fair CLR 70 64.9 84% 30.09 1016.2
20 07:52 NW 6 6.00 Fog/Mist CLR 68 66 93% 30.09 1016.1
20 06:52 NW 3 8.00 Fair CLR 66.9 64.9 75 66.9 93% 30.09 1015.8 0.19
20 05:52 S 3 10.00 Partly Cloudy FEW090 SCT110 66.9 64.9 93% 30.06 1014.7
20 04:52 SE 13 10.00 Fair CLR 69.1 64 84% 30.04 1013.9
20 03:52 SE 12 9.00 Thunderstorm in Vicinity FEW032 SCT060 OVC100 68 66 93% 30.08 1015.2 0.19 0.19
20 02:52 W 13 10.00 Overcast BKN055 OVC110 73.9 60.1 62% 30.1 1015.8
20 01:52 S 10 10.00 Fair CLR 73.9 59 60% 30.06 1014.6
Date Time (cdt) Wind (mph) Vis. (mi.) Weather Sky Cond. Air Dwpt Max. Min. Relative Humidity Wind Chill (°F) Heat Index (°F) altimeter (in) sea level (mb) 1 hr 3 hr 6 hr
6 hour
Temperature (ºF) Pressure Precipitation (in)